Date,TemperatureHighF,TemperatureAvgF,TemperatureLowF,DewpointHighF,DewpointAvgF,DewpointLowF,HumidityHigh,HumidityAvg,HumidityLow,PressureMaxIn,PressureMinIn,WindSpeedMaxMPH,WindSpeedAvgMPH,GustSpeedMaxMPH,PrecipitationSumIn
2013-2-1,37.3,29.0,20.8,27.9,7.3,-99.9,79,42,24,30.37,29.94,31,4,31,270.95
2013-2-2,35.9,26.7,18.4,31.4,17.2,1.8,99,71,29,30.37,30.05,18,1,18,29.89
2013-2-3,31.0,31.0,31.0,30.8,30.8,30.8,99,99,99,30.05,30.05,0,0,0,0.00
2013-2-4,46.4,38.5,27.0,24.6,22.3,17.1,72,53,36,30.16,29.97,12,2,12,314.44
2013-2-5,58.7,43.7,34.3,39.5,30.3,20.8,82,60,31,30.01,29.89,13,1,13,313.89
2013-2-6,58.9,48.4,41.2,36.9,27.1,17.0,80,47,22,30.16,29.95,10,1,10,313.81
2013-2-7,47.0,44.1,41.2,41.7,34.6,20.2,99,72,39,30.15,29.91,13,1,13,313.85
2013-2-8,48.0,41.9,32.4,46.8,37.1,25.1,100,85,51,30.10,29.89,20,2,20,313.73
2013-2-9,58.6,42.0,30.7,26.8,22.1,13.0,79,50,19,30.30,30.08,15,4,15,313.65
2013-2-10,48.5,43.7,40.2,46.5,29.4,17.8,100,61,33,30.33,30.10,19,3,19,313.85
2013-2-11,54.2,49.1,45.4,54.1,41.3,15.6,100,78,27,30.11,29.97,13,3,13,313.69
2013-2-12,52.8,44.2,38.5,40.2,28.7,14.4,95,58,23,30.07,29.85,18,2,18,313.69
2013-2-13,46.4,39.6,33.1,43.6,35.7,27.5,100,87,66,29.89,29.66,18,3,18,313.73
2013-2-14,56.0,39.6,28.2,31.0,27.2,22.5,90,65,32,30.06,29.88,17,3,17,313.61
2013-2-15,60.5,41.6,31.5,37.0,30.2,26.8,87,67,31,30.10,29.92,19,2,19,313.81
2013-2-16,35.6,29.3,20.8,30.6,18.2,3.2,85,64,38,30.05,29.86,21,3,21,313.45
2013-2-17,37.2,27.2,18.8,10.6,4.6,-2.1,51,39,20,30.27,30.04,31,2,31,313.53
2013-2-18,52.0,36.2,21.8,24.9,17.8,8.7,68,48,30,30.37,30.13,20,3,20,313.53
2013-2-19,51.6,38.9,30.9,44.2,25.2,9.5,100,63,29,30.13,29.88,26,3,26,314.08
2013-2-20,45.1,35.3,27.0,13.5,3.0,-7.7,48,28,11,30.12,30.03,22,7,22,313.81
2013-2-21,59.5,40.7,26.3,36.4,17.2,3.6,94,43,16,30.19,30.03,13,1,13,313.49
2013-2-22,40.9,37.5,33.7,40.9,36.7,32.1,100,97,90,30.19,30.05,17,1,17,313.53
2013-2-23,49.4,44.8,38.6,49.4,44.8,38.6,100,100,100,30.06,29.78,10,0,10,313.53
2013-2-24,43.8,42.8,41.1,43.2,40.8,39.1,100,93,88,29.85,29.83,11,8,11,7.50
2013-2-25,49.5,43.2,37.6,39.6,30.0,22.5,98,62,41,30.07,29.88,16,1,16,313.77
2013-2-26,42.5,40.7,36.6,42.3,39.4,30.1,100,95,79,29.89,29.53,24,4,24,313.81
2013-2-27,54.1,40.9,33.1,36.4,31.6,27.6,93,71,46,29.80,29.66,25,2,25,313.85
2013-2-28,43.5,33.2,28.8,30.0,24.0,19.9,76,69,55,29.94,29.72,25,2,25,314.32